Boscobel, WI

10:42 AM CDT on June 28, 2017 (GMT -0500)
Boscobel

Weather History for KOVS - October, 2012

Change the Weather History Date:

Sunday, October 7, 2012

  Actual Average (KPDC) Record (KPDC)
Temperature  
Mean Temperature 40 °F -  
Max Temperature 53 °F 66 °F 87 °F (1963)
Min Temperature 25 °F 41 °F 28 °F (1979)
Degree Days  
Heating Degree Days 26    
Moisture  
Dew Point 24 °F    
Average Humidity 57    
Maximum Humidity 85    
Minimum Humidity 26    
Precipitation  
Precipitation 0.00 in - - ()
Sea Level Pressure  
Sea Level Pressure 30.18 in    
Wind  
Wind Speed 2 mph (SW)    
Max Wind Speed 12 mph    
Max Gust Speed 18 mph    
Visibility 10 miles    
Events      
Averages and records for this station are not official NWS values.
T = Trace of Precipitation, MM = Missing Value Source: NWS Daily Summary

Daily Weather History Graph

Daily Weather History Graph

Search for Another Location

Airport or City:

Trip Planner

Search our weather history database for the weather conditions in past years. The results will help you decide how hot, cold, wet, or windy it might be!

Date:

Astronomy

Oct. 07, 2012 Rise Set
Actual Time 7:07 AM CDT 6:32 PM CDT
Civil Twilight 6:39 AM CDT 7:00 PM CDT
Nautical Twilight 6:06 AM CDT 7:33 PM CDT
Astronomical Twilight 5:32 AM CDT 8:06 PM CDT
Moon 11:38 PM CDT (10/7) 1:51 PM CDT (10/7)
Length of Visible Light 12h 21m
Length of Day
11h 24m
Waning Gibbous, 56% of the Moon is Illuminated
Oct 7
Waning Gibbous
Oct 8
Last Quarter
Oct 15
New
Oct 21
First Quarter
Oct 29
Full

Hourly Weather History & Observations

Time (CDT) Temp. Windchill Dew Point Humidity Pressure Visibility Wind Dir Wind Speed Gust Speed Precip Events Conditions
12:53 AM 39.0 °F - 28.0 °F 65% 30.24 in 10.0 mi Calm Calm - N/A   Overcast
1:53 AM 37.9 °F - 28.9 °F 70% 30.24 in 10.0 mi Calm Calm - N/A   Overcast
2:53 AM 37.0 °F - 30.0 °F 76% 30.23 in 10.0 mi Calm Calm - N/A   Overcast
3:53 AM 37.0 °F - 30.0 °F 76% 30.22 in 10.0 mi Calm Calm - N/A   Overcast
4:53 AM 37.0 °F - 30.0 °F 76% 30.22 in 10.0 mi Calm Calm - N/A   Overcast
5:53 AM 36.0 °F - 30.0 °F 79% 30.22 in 10.0 mi Calm Calm - N/A   Overcast
6:53 AM 36.0 °F - 30.0 °F 79% 30.22 in 10.0 mi Calm Calm - N/A   Overcast
7:53 AM 36.0 °F - 30.0 °F 79% 30.23 in 10.0 mi Calm Calm - N/A   Mostly Cloudy
8:53 AM 39.9 °F 37.8 °F 30.0 °F 68% 30.24 in 10.0 mi SSW 3.5 mph - N/A   Clear
9:53 AM 46.0 °F 43.1 °F 23.0 °F 40% 30.23 in 10.0 mi Variable 5.8 mph - N/A   Clear
10:53 AM 46.9 °F - 19.0 °F 33% 30.22 in 10.0 mi Calm Calm - N/A   Partly Cloudy
11:53 AM 50.0 °F - 19.9 °F 31% 30.21 in 10.0 mi WNW 11.5 mph 16.1 mph N/A   Clear
12:53 PM 50.0 °F - 19.9 °F 31% 30.19 in 10.0 mi WSW 8.1 mph - N/A   Clear
1:53 PM 51.1 °F - 19.9 °F 29% 30.16 in 10.0 mi SW 6.9 mph 16.1 mph N/A   Clear
2:53 PM 52.0 °F - 19.0 °F 27% 30.14 in 10.0 mi South 9.2 mph 18.4 mph N/A   Clear
3:53 PM 52.0 °F - 18.0 °F 26% 30.12 in 10.0 mi SW 6.9 mph 17.3 mph N/A   Clear
4:53 PM 51.1 °F - 17.1 °F 26% 30.10 in 10.0 mi West 8.1 mph - N/A   Clear
5:53 PM 48.9 °F - 17.1 °F 28% 30.10 in 10.0 mi SW 9.2 mph - N/A   Clear
7:53 PM 37.9 °F - 21.0 °F 51% 30.11 in 10.0 mi Calm Calm - N/A   Clear
8:53 PM 33.1 °F - 24.1 °F 70% 30.11 in 10.0 mi Calm Calm - N/A   Clear
9:53 PM 30.0 °F - 25.0 °F 82% 30.10 in 10.0 mi Calm Calm - N/A   Clear
10:53 PM 27.0 °F - 21.9 °F 81% 30.11 in 10.0 mi Calm Calm - N/A   Clear
11:53 PM 25.0 °F - 21.0 °F 85% 30.09 in 10.0 mi Calm Calm - N/A   Clear